Location: Betra
(48.4113°N, 8.6634°E)
Time: 02:50:47
(UTC+00:00)

SAR-Lupe-4 - Pass Details

Date: 12 August 2024
Orbit: 473 x 479 km, 98.1° (Epoch: 30 August)

Event Time Altitude Azimuth Distance (km) Brightness Sun altitude
Rises 01:59:35 0° 27° (NNE) 2,543 8.8 -18.6°
Reaches altitude 10° 02:02:03 10° 44° (NE) 1,659 7.5 -18.3°
Maximum altitude 02:04:47 21° 94° (E) 1,144 5.8 -18.0°
Drops below altitude 10° 02:07:29 10° 145° (SE) 1,650 6.1 -17.8°
Enters shadow 02:07:43 - 147° (SSE) 1,723 6.2 -17.7°
